Regional Weather Roundup
Issued by NWS

Home | Current Version | Previous Version | Text Only | Print | Product List | Glossary On
Versions: 1 2 3 4 5 6 7 8 9 10 11 12 13 14 15 16 17 18 19 20 21 22 23 24 25 26 27 28 29 30 31 32 33 34 35 36 37 38 39 40 41 42 43 44 45 46 47 48 49 50
000
ASUS43 KDMX 310407
RWRIA

WEATHER ROUNDUP FOR IOWA
NATIONAL WEATHER SERVICE DES MOINES IA
1000 PM CST FRI JAN 30 2015

NOTE: "FAIR" INDICATES FEW OR NO CLOUDS BELOW 12,000 FEET WITH NO
SIGNIFICANT WEATHER AND/OR OBSTRUCTIONS TO VISIBILITY.

* - THESE STATIONS ARE NOT NWS STATIONS...THUS NOT UNDER NWS
QUALITY CONTROL.  THEY ALSO DO NOT REPORT WEATHER SUCH
AS PRECIPITATION OR FOG.

IAZ001>003-012>014-020>022-031>034-043>046-310500-
   NORTHWEST IOWA

CITY           SKY/WX    TMP DP  RH WIND       PRES   REMARKS
CARROLL *      CLEAR     30  23  74 SW20      30.22F WCI  18
CHEROKEE *     CLEAR     28  25  86 S7        30.22F WCI  21
DENISON *      CLEAR     30  25  80 S12G22    30.21F WCI  21
LE MARS *      CLEAR     30  27  86 S9        30.20F WCI  22
ORANGE CITY *  CLEAR     28  25  86 S8        30.18F WCI  20
SHELDON *      CLEAR     30  27  86 S9        30.18S WCI  22
SIOUX CITY     MOCLDY    28  24  85 SE7       30.22F WCI  21
SPENCER        CLEAR     29  24  82 S12       30.19F WCI  19
STORM LAKE *   CLEAR     28  25  86 SW13      30.22F WCI  18
$$

IAZ055>058-069>071-079>083-090>094-310500-
   SOUTHWEST IOWA

CITY           SKY/WX    TMP DP  RH WIND       PRES   REMARKS
ATLANTIC *     CLOUDY    30  21  69 S12       30.28F WCI  21
AUDUBON *      CLEAR     30  21  69 S10G16    30.26F WCI  21
CLARINDA *     PTCLDY    28  21  74 S6        30.34S WCI  22
COUNCIL BLFS * MOCLDY    36  27  69 S10       30.26F WCI  28
CRESTON *      CLOUDY    28  19  69 S12       30.30F WCI  18
HARLAN  *      PTCLDY    30  25  80 S10       30.29F WCI  21
LAMONI         CLOUDY    27  17  66 S8        30.32F WCI  19
RED OAK *      CLOUDY    32  21  64 S12       30.30F WCI  23
SHENANDOAH *   CLEAR     32  23  69 S8        30.32F WCI  25
$$

IAZ047>049-059>061-072>074-084-310500-
   CENTRAL IOWA

CITY           SKY/WX    TMP DP  RH WIND       PRES   REMARKS
AMES           CLEAR     27  17  66 S5        30.28F WCI  22
ANKENY *       CLEAR     30  16  55 SW8       30.29F WCI  23
CHARITON *     PTCLDY    28  19  69 SW12      30.31F WCI  18
DES MOINES     MOCLDY    28  15  58 S7        30.30F WCI  21
GRINNELL*      CLEAR     27  18  69 S9        30.29F WCI  17
KNOXVILLE *    PTCLDY    27  18  69 S8        30.30F WCI  18
MARSHALLTOWN   CLEAR     26  16  65 S10       30.27F WCI  16
PELLA *        CLEAR     27  18  69 S8        30.32F WCI  18
PERRY *          N/A     28  23  80 S8        30.26F WCI  20
$$

IAZ004>006-015-016-023>025-035-036-310500-
   NORTH CENTRAL IOWA

CITY           SKY/WX    TMP DP  RH WIND       PRES   REMARKS
ALGONA *       CLEAR     28  25  86 S15       30.21F WCI  17
CLARION *      CLEAR     27  23  86 SW9       30.25S WCI  17
ESTHERVILLE    CLEAR     28  23  81 SW15      30.18S WCI  16
FORT DODGE *   CLEAR     28  18  64 S10       30.25F WCI  19
MASON CITY     CLEAR     22  17  81 S7        30.26R WCI  13
FOREST CITY *  CLEAR     27  19  74 S6        30.24R WCI  20
IOWA FALLS *     N/A     27  19  74 S9        30.26F WCI  17
$$

IAZ007>011-017>019-026>030-037>042-050>054-066-310500-
   NORTHEAST IOWA

CITY           SKY/WX    TMP DP  RH WIND       PRES   REMARKS
CEDAR RAPIDS   CLEAR     21  15  78 S6        30.31F WCI  13
CHARLES CITY * CLEAR     23  16  74 S9        30.27R WCI  13
CLINTON *      PTCLDY    19  14  79 S6        30.38S WCI  11
DECORAH *      MOCLDY    23  12  63 S6G13     30.26S WCI  16
DUBUQUE        PTCLDY    19  14  81 S10       30.30F WCI   7
MONTICELLO *   CLEAR     21  18  86 S7        30.32F WCI  13
OELWEIN *      CLEAR     23  16  74 S10       30.29S WCI  12
WATERLOO       PTCLDY    24  15  68 S10       30.28F WCI  14
$$

IAZ064-065-067-068-078-310500-
   EAST CENTRAL IOWA

CITY           SKY/WX    TMP DP  RH WIND       PRES   REMARKS
DAVENPORT      PTCLDY    21  14  74 S6        30.36F WCI  13
IOWA CITY      CLEAR     22  17  81 CALM      30.36S
MT. PLEASANT * CLEAR     27  19  74 S8        30.36F WCI  18
MUSCATINE *    CLEAR     25  23  93 CALM      30.37S
QUAD CITIES    PTCLDY    22  16  78 CALM      30.36F
$$

IAZ062-063-075>077-085>089-095>099-310500-
   SOUTHEAST IOWA

CITY           SKY/WX    TMP DP  RH WIND       PRES   REMARKS
BURLINGTON     CLEAR     26  19  74 S6        30.36F WCI  19
FAIRFIELD *    CLEAR     27  18  69 S6        30.34F WCI  20
FORT MADISON * CLEAR     27  19  74 S6        30.37F WCI  20
KEOKUK *       PTCLDY    27  19  74 S5        30.37S WCI  21
OSKALOOSA *      N/A     23  18  80 S5        30.33F WCI  17
CENTERVILLE *  MOCLDY    28  19  69 S9        30.34F WCI  20
OTTUMWA        CLEAR     23  16  74 S6        30.32F WCI  16
WASHINGTON *   CLEAR     25  21  86 S8        30.34F WCI  16
$$

ABBREVIATIONS USED IN REMARKS
   TC - TEMPERATURES IN CELSIUS
  WCI - WIND CHILL INDEX
   HX - HEAT INDEX
  VSB - VISIBILITY
$$



USA.gov is the U.S. government's official web portal to all federal, state and local government web resources and services.